Lisbon, Portugal

4:54 PM WEST on June 20, 2018 (GMT +0100)
Lisbon

Weather History for LPPT - May, 2015

Change the Weather History Date:

Monday, May 18, 2015

  Actual Average Record
Temperature  
Mean Temperature 68 °F -  
Max Temperature 78 °F 72 °F 89 °F (2007)
Min Temperature 59 °F 56 °F 50 °F (2013)
Cooling Degree Days 4    
Growing Degree Days 18 (Base 50)    
Moisture  
Dew Point 55 °F    
Average Humidity 60    
Maximum Humidity 82    
Minimum Humidity 41    
Precipitation  
Precipitation 0.00 in - - ()
Sea Level Pressure  
Sea Level Pressure 29.93 in    
Wind  
Wind Speed 11 mph ()    
Max Wind Speed 25 mph    
Max Gust Speed 39 mph    
Visibility 6.2 miles    
Events      
Averages and records for this station are not official NWS values.
T = Trace of Precipitation, MM = Missing Value Source: Averaged Metar Reports

Daily Weather History Graph

Daily Weather History Graph

Search for Another Location

Airport or City:

Astronomy

May. 18, 2015 Rise Set
Actual Time 6:22 AM WEST 8:44 PM WEST
Civil Twilight 5:51 AM WEST 9:14 PM WEST
Nautical Twilight 5:14 AM WEST 9:51 PM WEST
Astronomical Twilight 4:33 AM WEST 10:33 PM WEST
Moon 6:47 AM WEST (5/18) 9:09 PM WEST (5/18)
Length of Visible Light 15h 22m
Length of Day
14h 22m
New Moon, 0% of the Moon is Illuminated
May 18
New Moon
May 25
First Quarter
Jun 2
Full
Jun 9
Last Quarter
Jun 16
New

Hourly Weather History & Observations

Time (WEST) Temp. Dew Point Humidity Pressure Visibility Wind Dir Wind Speed Gust Speed Precip Events Conditions
12:00 AM 73.4 °F 48.2 °F 41% 29.95 in - NW 10.4 mph - N/A   Clear
12:30 AM 73.4 °F 50.0 °F 44% 29.95 in - NNW 10.4 mph - N/A   Clear
1:00 AM 73.4 °F 50.0 °F 44% 29.95 in - NW 9.2 mph - N/A   Clear
1:30 AM 73.4 °F 50.0 °F 44% 29.95 in - NW 8.1 mph - N/A   Clear
2:00 AM 73.4 °F 50.0 °F 44% 29.95 in - NW 10.4 mph - N/A   Clear
2:30 AM 73.4 °F 50.0 °F 44% 29.92 in - NNW 10.4 mph - N/A   Clear
3:00 AM 73.4 °F 50.0 °F 44% 29.92 in - NNW 9.2 mph - N/A   Clear
3:30 AM 71.6 °F 50.0 °F 46% 29.92 in - NW 6.9 mph - N/A   Clear
4:00 AM 71.6 °F 51.8 °F 50% 29.92 in - NW 8.1 mph - N/A   Clear
4:30 AM 71.6 °F 51.8 °F 50% 29.92 in - NW 9.2 mph - N/A   Clear
5:00 AM 71.6 °F 51.8 °F 50% 29.92 in - NW 9.2 mph - N/A   Clear
5:30 AM 69.8 °F 51.8 °F 53% 29.89 in - NW 9.2 mph - N/A   Clear
6:00 AM 68.0 °F 51.8 °F 56% 29.92 in - Variable 6.9 mph - N/A   Clear
6:30 AM 66.2 °F 53.6 °F 64% 29.92 in - NNW 5.8 mph - N/A   Clear
7:00 AM 64.4 °F 55.4 °F 73% 29.92 in - NNW 9.2 mph - N/A   Clear
7:30 AM 64.4 °F 55.4 °F 73% 29.92 in 6.2 mi NNW 10.4 mph - N/A   Partly Cloudy
8:00 AM 64.4 °F 57.2 °F 77% 29.92 in 6.2 mi NNW 10.4 mph - N/A   Partly Cloudy
8:30 AM 66.2 °F 57.2 °F 73% 29.95 in 6.2 mi NNW 10.4 mph - N/A   Partly Cloudy
9:00 AM 69.8 °F 57.2 °F 64% 29.95 in 6.2 mi NNW 8.1 mph - N/A   Partly Cloudy
9:30 AM 71.6 °F 59.0 °F 64% 29.95 in - NNW 8.1 mph - N/A   Clear
10:00 AM 73.4 °F 59.0 °F 61% 29.95 in - NNW 5.8 mph - N/A   Clear
10:30 AM 75.2 °F 59.0 °F 57% 29.95 in - NNW 6.9 mph - N/A   Clear
11:00 AM 77.0 °F 59.0 °F 54% 29.95 in - NW 6.9 mph - N/A   Clear
11:30 AM 77.0 °F 60.8 °F 57% 29.95 in - NW 9.2 mph - N/A   Clear
12:00 PM 77.0 °F 60.8 °F 57% 29.95 in - NW 10.4 mph - N/A   Clear
12:30 PM 78.8 °F 60.8 °F 54% 29.95 in - NW 11.5 mph - N/A   Clear
1:00 PM 77.0 °F 59.0 °F 54% 29.95 in - NNW 12.7 mph - N/A   Clear
1:30 PM 78.8 °F 59.0 °F 51% 29.92 in - NW 13.8 mph - N/A   Clear
2:00 PM 77.0 °F 59.0 °F 54% 29.92 in - NNW 13.8 mph - N/A   Clear
2:30 PM 77.0 °F 59.0 °F 54% 29.92 in - NW 15.0 mph - N/A   Clear
3:00 PM 77.0 °F 59.0 °F 54% 29.92 in - NNW 19.6 mph - N/A   Clear
3:30 PM 77.0 °F 59.0 °F 54% 29.92 in - NNW 17.3 mph - N/A   Clear
4:00 PM 75.2 °F 59.0 °F 57% 29.89 in - NW 18.4 mph - N/A   Clear
4:04 PM 75.2 °F 59.0 °F 57% 29.89 in - NW 17.3 mph 28.8 mph N/A   Clear
4:30 PM 73.4 °F 57.2 °F 57% 29.89 in - NW 19.6 mph - N/A   Clear
5:00 PM 71.6 °F 55.4 °F 57% 29.89 in - NW 19.6 mph 31.1 mph N/A   Clear
5:30 PM 69.8 °F 55.4 °F 60% 29.89 in - NW 18.4 mph - N/A   Clear
5:32 PM 69.8 °F 55.4 °F 60% 29.89 in - NW 18.4 mph 29.9 mph N/A   Clear
6:00 PM 69.8 °F 55.4 °F 60% 29.89 in - NW 17.3 mph 28.8 mph N/A   Clear
6:30 PM 68.0 °F 53.6 °F 60% 29.89 in - NW 20.7 mph - N/A   Clear
6:31 PM 68.0 °F 53.6 °F 60% 29.89 in - NW 19.6 mph 31.1 mph N/A   Clear
7:00 PM 68.0 °F 53.6 °F 60% 29.89 in - NW 18.4 mph - N/A   Clear
7:01 PM 66.2 °F 53.6 °F 64% 29.89 in - NW 19.6 mph 32.2 mph N/A   Clear
7:30 PM 66.2 °F 53.6 °F 64% 29.89 in 6.2 mi NW 21.9 mph - N/A   Partly Cloudy
7:31 PM 64.4 °F 53.6 °F 68% 29.89 in 6.2 mi NW 21.9 mph 33.4 mph N/A   Partly Cloudy
8:00 PM 64.4 °F 53.6 °F 68% 29.92 in 6.2 mi NW 18.4 mph 29.9 mph N/A   Partly Cloudy
8:30 PM 62.6 °F 53.6 °F 72% 29.92 in 6.2 mi NW 20.7 mph 32.2 mph N/A   Partly Cloudy
9:00 PM 60.8 °F 53.6 °F 77% 29.92 in 6.2 mi NNW 25.3 mph 39.1 mph N/A   Partly Cloudy
9:30 PM 60.8 °F 53.6 °F 77% 29.95 in 6.2 mi NNW 23.0 mph - N/A   Partly Cloudy
9:31 PM 60.8 °F 53.6 °F 77% 29.95 in 6.2 mi NNW 19.6 mph 33.4 mph N/A   Partly Cloudy
10:00 PM 60.8 °F 53.6 °F 77% 29.98 in 6.2 mi NNW 18.4 mph - N/A   Scattered Clouds
10:01 PM 60.8 °F 53.6 °F 77% 29.98 in 6.2 mi NNW 13.8 mph 27.6 mph N/A   Scattered Clouds
10:30 PM 60.8 °F 53.6 °F 77% 29.98 in 6.2 mi Variable 9.2 mph 23.0 mph N/A   Scattered Clouds
11:00 PM 59.0 °F 53.6 °F 82% 29.98 in 6.2 mi NNW 13.8 mph 26.5 mph N/A   Scattered Clouds
11:30 PM 59.0 °F 53.6 °F 82% 29.98 in 6.2 mi North 16.1 mph 28.8 mph N/A   Scattered Clouds